CZ-3C DEB, 39600

Orbit data source: Space-Track

CZ-3C DEB, 39600 is space debris in HEO originally from a launch on Sun, 31 Oct 2010 UTC launched from the Xichang Space Center, China (XSC). Debris objects in space refer to the collection of defunct objects orbiting the Earth. Examples of debris include non-operational satellites, rocket bodies, and fragments generated from explosions, collisions, or faulty payload assembly.

Loading next visibility...
Identifier
39600, 2010-057X
Orbit
HEO
Country
Flag of CNCN / PRC
Related business
Manufacturer
CALT
Mission
Spacecraft
Bus & Motor
Unknown
Mass
Unknown
Launch date (UTC)
2010-10-31 (15 years ago)
Launch vehicle
Unknown
Launch site
Xichang Space Center, China (XSC)
Object type
Payload
Rocket body
Debris
Shape & HBR
Unknown shape, 0.3 m
Radar Cross Section
Small (<0.1 m²)

Expand to show TLE details & history
Last TLE update: 21 hours ago

TLE from 21 hours ago
0 CZ-3C DEB
1 39600U 10057X   26067.62447334  .00000456  00000-0  21656-2 0  9992
2 39600  20.3265   8.9987 7234622 333.4995   3.0409  2.25328892100975
Epoch: 2026-03-08T14:59Z
TLE epoch observation values (Epoch: 2026-03-08T14:59:14.496Z)
Latitude
-0.00178°
Longitude
-22.14154°
Altitude
707.492 km
Speed
9.812 km/s
True Right ascension
00h 35m 59s
True Declination
0° 00' 06"
Sunlit
Object was in daylight at epoch
Visualization orbit readout
Latitude
Unknown
Longitude
Unknown
Altitude
Unknown
Speed
Unknown
Apparent Right ascension
Unknown
Apparent Declination
Unknown
Sunlit
N/A
Visualization observer readout
Local Sidereal Time
15:54:06
Azimuth
Unknown
Elevation
Unknown
Doppler factor
Unknown
Orbital elements
Apogee altitude
35,986.625 km
Perigee altitude
419.493 km
Semi-major axis
24,581.196 km
Eccentricity
0.72346
Inclination
20.3265°
RAAN
8.9987°
Arg. of periapsis
333.4995°
True anomaly
26.6228°
Mean anomaly
3.0409°
Eccentric anomaly
10.82801°
Mean motion
0.56317 °/min
Orbital period
639.24 mins
BSTAR
0.0021656
Loading maneuver chart data...
Computing Atmospheric mass density...
Loading historical data...
Loading historical data...
Loading historical data...
Loading historical data...
Loading historical data...
Loading historical data...
Loading historical data...

Documentation

Showing up to 5 results
|